Regional Weather Roundup
Issued by NWS

Home | Current Version | Previous Version | Text Only | Print | Product List | Glossary On
Versions: 1 2 3 4 5 6 7 8 9 10 11 12 13 14 15 16 17 18 19 20 21 22 23 24 25 26 27 28 29 30 31 32 33 34 35 36 37 38 39 40 41 42 43 44 45 46 47 48 49 50
000
ASUS43 KDTX 192110
RWRMI
MICHIGAN HOURLY REGIONAL WEATHER ROUNDUP
NATIONAL WEATHER SERVICE DETROIT/PONTIAC MI
500 PM EDT SAT APR 19 2014

NOTE: "FAIR" INDICATES FEW OR NO CLOUDS BELOW 12,000 FEET WITH NO
SIGNIFICANT WEATHER AND/OR OBSTRUCTION TO VISIBILITY.

MIZ047>049-052>055-059>063-066>070-074>076-081>083-192200-
SOUTHEAST LOWER MICHIGAN

CITY           SKY/WX    TMP DP  RH WIND       PRES   REMARKS
ADRIAN         SUNNY     54  30  40 E12       30.37F
ALMA           SUNNY     56  31  37 E10       30.34F
ANN ARBOR      SUNNY     56  22  26 E10G16    30.36F
BAD AXE        SUNNY     48  27  44 E9G16     30.40F
DETROIT CITY   SUNNY     56  29  35 E10       30.38F
DETROIT        MOSUNNY   54  30  40 SE10      30.39F
FLINT          SUNNY     58  29  33 E13       30.35F
GROSSE ILE     SUNNY     46  34  61 S9        30.38F
HILLSDALE      SUNNY     58  28  31 E10G16    30.33F
HOWELL         SUNNY     56  25  29 SE12G18   30.34F

CITY           SKY/WX    TMP DP  RH WIND       PRES   REMARKS
JACKSON        SUNNY     58  23  26 SE9       30.33F
LAMBERTVILLE   SUNNY     52  30  43 E8        30.38F
LANSING        SUNNY     60  22  23 SE12G17   30.34F
LAPEER         NOT AVBL
MASON          SUNNY     59  24  26 SE10      30.33F
MONROE         SUNNY     50  30  46 SE9       30.38F
MT. CLEMENS    MOSUNNY   55  31  39 NE7       30.37F
PONTIAC        MOSUNNY   55  24  30 E13       30.36F
PORT HOPE        N/A     37  32  82 NE7       30.42F
PORT HURON     SUNNY     50  34  53 NE9       30.40F
TRI CITIES     SUNNY     52  36  54 N13       30.38F
YPSILANTI      SUNNY     58  22  24 E9        30.37F
$$
MIZ043>046-050>051-056>058-064>065-071>073-077>080-192200-
SOUTHWEST LOWER MICHIGAN

CITY           SKY/WX    TMP DP  RH WIND       PRES   REMARKS
BATTLE CREEK   MOSUNNY   60  27  28 S8        30.32F
BENTON HARBOR  PTSUNNY   64  34  32 SE10      30.28F
BIG RAPIDS     MOSUNNY   55  30  38 S14       30.32F
COLDWATER      SUNNY     58  29  32 SE14      30.31F
HOLLAND        MOSUNNY   64  29  26 E9        30.30F
GRAND RAPIDS   PTSUNNY   62  28  27 SE17G25   30.31F
KALAMAZOO      MOSUNNY   63  28  26 SE7       30.31F
MARSHALL       MOSUNNY   59  28  30 E10       30.31F
MUSKEGON       PTSUNNY   61  25  25 SE10      30.31F
$$
MIZ016>042-192200-
NORTHERN LOWER MICHIGAN

CITY           SKY/WX    TMP DP  RH WIND       PRES   REMARKS
ALPENA         PTSUNNY   41  28  60 SE14      30.42F
BEAVER ISLAND  PTSUNNY   45  29  53 NE7       30.32F
BELLAIRE       PTSUNNY   59  23  24 SE12      30.30F
CADILLAC       MOSUNNY   54  29  38 SE8       30.31F
CHARLEVOIX     PTSUNNY   51  29  43 NW5       30.33F
FRANKFORT      PTCLDY    53  31  42 W6        30.29F
GAYLORD        PTSUNNY   54  24  31 SE13G20   30.31F
GRAYLING       MOSUNNY   55  23  28 SE14      30.34F
HARBOR SPRINGS PTSUNNY   57  28  33 E8        30.30F
HOUGHTON LAKE  SUNNY     53  26  35 SE15G22   30.35F
MANISTEE       PTSUNNY   52  28  40 NW8       30.30F
OSCODA         PTSUNNY   40  30  67 E7        30.43F
PELLSTON       PTSUNNY   53  29  39 E15       30.33F
TRAVERSE CITY  CLOUDY    59  23  25 S8G16     30.28F
$$
MIZ007>008-015-192200-
EASTERN UPPER MICHIGAN

CITY           SKY/WX    TMP DP  RH WIND       PRES   REMARKS
KINROSS        CLOUDY    41  23  48 SE17      30.37F
MACKINAC ISLAN PTSUNNY   35  30  81 E18G28    30.36F
NEWBERRY       PTSUNNY   43  27  52 SE13      30.32F
S. S. MARIE    CLOUDY    42  23  46 SE9G18    30.38F
$$
MIZ004>006-011>014-085-192200-
CENTRAL UPPER MICHIGAN

CITY           SKY/WX    TMP DP  RH WIND       PRES   REMARKS
MANISTIQUE     MOSUNNY   40  30  65 SE10G21   30.31F
ESCANABA       PTSUNNY   41  30  65 SE15      30.29F
MENOMINEE      MOSUNNY   46  28  49 S13       30.28F
SAWYER-GWINN   SUNNY     43  23  45 S22G32    30.23F
$$
MIZ001>003-009>011-084-192200-
WESTERN UPPER MICHIGAN

CITY           SKY/WX    TMP DP  RH WIND       PRES   REMARKS
IRON MOUNTAIN  MOSUNNY   50  21  32 SE16G28   30.18F
HOUGHTON       CLOUDY    37  27  67 E10       30.08F
COPPER HARBOR    N/A     39  27  62 S20G45    30.11
IRONWOOD       CLOUDY    52  28  40 S15G24    30.00R
$$

ABBREVIATIONS USED IN REMARKS
   TC - TEMPERATURE IN CELSIUS
  WCI - WIND CHILL INDEX
   HX - HEAT INDEX
  VSB - VISIBILITY




USA.gov is the U.S. government's official web portal to all federal, state and local government web resources and services.